Regional Weather Roundup
Issued by NWS

Home | Current Version | Previous Version | Graphics & Text | Print | Product List | Glossary On
Versions: 1 2 3 4 5 6 7 8 9 10 11 12 13 14 15 16 17 18 19 20 21 22 23 24 25 26 27 28 29 30 31 32 33 34 35 36 37 38 39 40 41 42 43 44 45 46 47 48 49 50
000
ASUS43 KOAX 210710
RWRNE

WEATHER ROUNDUP FOR NEBRASKA
NATIONAL WEATHER SERVICE OMAHA NE
100 AM CST SUN DEC 21 2014

NOTES: SATELLITE DATA IS BEING USED TO AUGMENT CLOUD COVER ABOVE
       12000 FEET.
       "FAIR" INDICATES FEW OR NO CLOUDS BELOW 12,000 FEET WITH NO
       SIGNIFICANT WEATHER AND/OR OBSTRUCTIONS TO VISIBILITY.

  * THESE STATIONS DO NOT REPORT WEATHER SUCH AS RAIN...SNOW OR FOG.

NEZ001>004-019>022-054>056-210800-
NEBRASKA PANHANDLE

CITY           SKY/WX    TMP DP  RH WIND       PRES   REMARKS
SCOTTSBLUFF    MOCLDY    35  28  75 NW6       29.86F WCI  30
ALLIANCE       CLOUDY    34  28  79 SW9       29.85F WCI  27
CHADRON        PTCLDY    25  21  85 SW8       29.81F WCI  16
KIMBALL        CLOUDY    36  23  61 W5        29.87F WCI  32
SIDNEY         CLOUDY    28  23  81 NW6       29.87F WCI  22
$$

NEZ057>060-069>072-079>082-210800-
SOUTHWEST NEBRASKA

CITY           SKY/WX    TMP DP  RH WIND       PRES   REMARKS
NORTH PLATTE   MOCLDY    23  20  88 NW5       29.89F WCI  17
IMPERIAL       MOCLDY    35  25  66 SW5       29.89F WCI  31
LEXINGTON      CLEAR     26  24  94 W3        29.90F
MCCOOK         PTCLDY    30  26  85 W7        29.90F WCI  23
OGALLALA       CLOUDY    27  26  94 W3        29.88F
$$

NEZ005>010-023>029-035>040-094-210800-
NORTH CENTRAL NEBRASKA

CITY           SKY/WX    TMP DP  RH WIND       PRES   REMARKS
VALENTINE      MOCLDY    26  24  92 SW6       29.83F WCI  19
AINSWORTH      MOCLDY    27  23  84 SW5       29.84F WCI  22
BROKEN BOW     PTCLDY    27  24  89 N5        29.88F WCI  22
O`NEILL        FOG       29  29 100 S5        29.87F VSB 1/4 WCI  24
THEDFORD       PTCLDY    27  25  91 SW3       29.87F
$$

NEZ041-046>049-061>064-073>077-083>087-210800-
SOUTH CENTRAL NEBRASKA

CITY           SKY/WX    TMP DP  RH WIND       PRES   REMARKS
GRAND ISLAND   FOG       29  29 100 S5        29.93F VSB 1/4 WCI  24
AURORA         FOG       31  31 100 CALM      29.92F VSB 1/4
HASTINGS       CLEAR     31  29  92 S5        29.91F FOG     WCI  26
HEBRON         CLEAR     36  33  90 SW9       29.97S WCI  29
HOLDREGE       CLEAR     29  27  92 S5        29.90F WCI  24
KEARNEY *      CLEAR     28  25  86 S8        29.91F WCI  20
YORK           CLOUDY    32  32 100 S7        29.94F FOG     WCI  26
$$

NEZ011>018-030>034-042>045-210800-
NORTHEAST NEBRASKA

CITY           SKY/WX    TMP DP  RH WIND       PRES   REMARKS
NORFOLK        FOG       33  33 100 SE6       29.92F VSB 1/4 WCI  28
ALBION         FOG       32  31  94 S5        29.91F VSB 1/2 WCI  27
BLAIR          CLOUDY    36  34  94 S12       29.97F FOG     WCI  28
COLUMBUS *     CLOUDY    34  30  86 SE3       29.95F VSB 1/4
FREMONT        FOG       36  36  99 SE7       29.97F VSB 1   WCI  30
TEKAMAH        FOG       34  33  96 SE12      29.99F VSB 3/4 WCI  25
WAYNE          FOG       33  32  99 S10       29.94F VSB 1/4 WCI  24
$$

NEZ050>053-065>068-078-088>093-210800-
SOUTHEAST NEBRASKA

CITY           SKY/WX    TMP DP  RH WIND       PRES   REMARKS
LINCOLN        PTCLDY    33  32  96 S7        29.98F FOG     WCI  27
OMAHA EPPLEY   CLOUDY    36  35  96 SE10      30.01F FOG     WCI  28
BEATRICE       CLEAR     35  34  96 S9        29.99F WCI  28
FALLS CITY     PTCLDY    35  32  88 S9        30.04F WCI  28
NEBRASKA CITY  PTCLDY    33  33 100 S9        30.01S FOG     WCI  26
PLATTSMOUTH    CLOUDY    35  33  94 S8        30.00F FOG     WCI  28
$$

NEZ044-045-051>053-067-210800-
OMAHA AREA

CITY           SKY/WX    TMP DP  RH WIND       PRES   REMARKS
OMAHA EPPLEY   CLOUDY    36  35  96 SE10      30.01F FOG     WCI  28
BLAIR          CLOUDY    36  34  94 S12       29.97F FOG     WCI  28
FREMONT        FOG       36  36  99 SE7       29.97F VSB 1   WCI  30
MILLARD        CLOUDY    36  35  96 SE7       30.00F FOG     WCI  30
OFFUTT AFB     CLOUDY    35  34  97 E5        30.00F FOG     WCI  31
PLATTSMOUTH    CLOUDY    35  33  94 S8        30.00F FOG     WCI  28
WAHOO          FOG       36  34  93 SE6       29.97F VSB 3/4 WCI  31
$$



USA.gov is the U.S. government's official web portal to all federal, state and local government web resources and services.